User: anonymous
Location: Unspecified
(0.0000°N, 0.0000°E)
Time: 15:24:50
(UTC+02:00)
Language:

Cosmos 2082 Rocket - Orbit

View from above orbital plane
View from above orbital plane
View from above satellite
View from above satellite

Ground track
Ground track

The orbit data is extracted from the following two-line orbital elements,

1 20625U 90046B   14203.16895242  .00000273  00000-0  16685-3 0  7686
2 20625 070.9971 215.8760 0016346 278.6407 145.4975 14.14525340247796
Epoch (UTC): 22 July 2014 04:03:17
Eccentricity: 0.0016346
inclination: 70.9971°
perigee height: 832 km
apogee height: 856 km
right ascension of ascending node: 215.8760°
argument of perigee: 278.6407°
revolutions per day: 14.14525340
mean anomaly at epoch: 145.4975°
orbit number at epoch: 24779

The dashed part of the orbit path shows where the satellite is in the earth's shadow,  

DLR